Regional Weather Roundup
Issued by NWS

Home | Current Version | Previous Version | Text Only | Print | Product List | Glossary On
Versions: 1 2 3 4 5 6 7 8 9 10 11 12 13 14 15 16 17 18 19 20 21 22 23 24 25 26 27 28 29 30 31 32 33 34 35 36 37 38 39 40 41 42 43 44 45 46 47 48 49 50
000
ASUS44 KFWD 300110
RWRTX
NORTH TEXAS HOURLY WEATHER ROUNDUP
NATIONAL WEATHER SERVICE FORT WORTH TX
800 PM CDT FRI APR 29 2016

NOTE: "FAIR" INDICATES FEW OR NO CLOUDS BELOW 12,000 FEET WITH NO
SIGNIFICANT WEATHER AND/OR OBSTRUCTIONS TO VISIBILITY.

TXZ118-119-300200-
DALLAS/FORT WORTH METROPLEX

CITY           SKY/WX    TMP DP  RH WIND       PRES   REMARKS
DFW AIRPORT    CLOUDY    75  69  81 SE8       29.56R
DALLAS LOVE    LGT RAIN  74  71  91 SE8       29.57R FOG
FTW MEACHAM    CLOUDY    76  72  87 SE8       29.55R
DAL-EXECUTIVE  TSTM      74  71  91 S8        29.55R FOG
FTW-ALLIANCE   CLOUDY    75  71  87 S8        29.55R
FTW-NAS-JRB    CLOUDY    77  72  84 SE8       29.56R
FTW-SPINKS     CLOUDY    74  69  82 S8        29.59R HAZE
ARLINGTON      CLOUDY    78  69  73 S15G23    29.55R
GRAND PRAIRIE  PTCLDY    75  70  83 SE7       29.55S
ADDISON        CLOUDY    73  73 100 SE9       29.59R
LANCASTER      CLOUDY    70  67  90 CALM      29.58R
$$

TXZ091>094-102>105-117-120-121-131>134-300200-
NORTH CENTRAL TEXAS

CITY           SKY/WX    TMP DP  RH WIND       PRES   REMARKS
SHRMAN/DENISON MOCLDY    67  63  86 SE9       29.58S
GAINESVILLE    CLOUDY    69  64  83 E7        29.61R
BOWIE          PTCLDY    75  60  59 N6        29.57F
BRIDGEPORT     MOCLDY    76  69  79 SW5       29.59R
DECATUR        PTCLDY    76  66  70 S7        29.57R
DENTON         CLOUDY    74  70  87 E3        29.56R
MCKINNEY       CLOUDY    71  69  93 SE7       29.57R
GREENVILLE     CLOUDY    70  68  94 SE9       29.57S THUNDER
ROCKWALL       CLOUDY    71  71  98 S10       29.57R
TERRELL        CLOUDY    72  70  93 SE5       29.59R
WAXAHACHIE     HVY RAIN  70  67  92 SE3       29.58R
CLEBURNE       CLOUDY    68  68 100 S7G16     29.60R THUNDER
GRANBURY       CLOUDY    75  68  79 SE10      29.59R
$$

TXZ083>090-098>101-113>116-127>130-139>142-154-155-300200-
WESTERN NORTH TEXAS

CITY           SKY/WX    TMP DP  RH WIND       PRES   REMARKS
WICHITA FALLS  PTCLDY    68  61  78 N10       29.59R
WF-KICKAPOO    CLEAR     73  59  62 N10G22    29.60R
VERNON         PTCLDY    64  53  66 N18G25    29.66R
ABILENE        CLEAR     77  46  33 W7        29.61R
ABILENE-DYESS  CLEAR     80  51  37 SW8       29.60R
BRECKENRIDGE   CLEAR     81  49  33 W3        29.57R HAZE
GRAHAM         CLEAR     76  62  61 N7        29.55R
MINERAL WELLS  PTCLDY    73  67  81 SE8       29.55R
STEPHENVILLE   CLEAR     76  68  76 CALM      29.60R
COMANCHE       CLOUDY    77  71  80 CALM      29.60R
BROWNWOOD      CLEAR     77  73  88 CALM      29.59R
COLEMAN        CLEAR     81  50  33 CALM      29.60R
$$

TXZ143>147-156>162-174-175-300200-
CENTRAL TEXAS

CITY           SKY/WX    TMP DP  RH WIND       PRES   REMARKS
WACO           CLOUDY    78  71  79 S6        29.57R
WACO-TSTC      MOCLDY    81  73  78 S12       29.58R
WACO-MCGREGOR  CLOUDY    79  74  84 S10       29.58R
HILLSBORO      TSTM      68  65  91 W12G18    29.63R
CORSICANA      LGT RAIN  77  72  84 S9        29.58R
MEXIA          CLOUDY    76  75  96 SE10G16   29.58R
HEARNE         CLOUDY    79  73  83 S12       29.60R
CAMERON        CLOUDY    80  74  80 S15       29.58R
TEMPLE         CLOUDY    79  74  84 SE15      29.58R
KILLEEN        PTCLDY    78  73  84 S12       29.60R THUNDER
KILLEEN-SKYLRK CLOUDY    79  73  82 S9        29.57R
FORT HOOD      CLOUDY    78  73  83 VRB7      29.57R
GATESVILLE     CLOUDY    70  66  88 MISG      29.62R
HAMILTON       CLOUDY    72  70  91 MISG      29.60S THUNDER
LAMPASAS       TSTM      71  68  90 W15G28    29.66R VSB 1/2
$$

TXZ095>097-106>112-122>126-135>138-148>153-164>167-300200-
EAST TEXAS

CITY           SKY/WX    TMP DP  RH WIND       PRES   REMARKS
PARIS          CLOUDY    70  63  78 E10       29.60S THUNDER
SULPHUR SPRNGS TSTM      72  70  95 CALM      29.62R
MOUNT PLEASANT CLOUDY    71  70  98 SE7       29.66F VSB 3/4
GILMER         TSTM      72  70  96 SE8       29.61S
MINEOLA        MOCLDY    70  70 100 E3        29.61R
TYLER          LGT RAIN  72  69  90 S12       29.62R
LONGVIEW       TSTM      73  71  93 S13G25    29.62S FOG
MARSHALL       CLOUDY    70  67  92 SE8       29.66R
ATHENS         CLOUDY    72  72 100 SE5       29.58R
PALESTINE      LGT RAIN  73  73  98 CALM      29.61R
JACKSONVILLE   CLOUDY    73  72  99 SE6       29.63S
HENDERSON      TSTM      73  72  95 SE5       29.63R
CENTER         CLOUDY    79  73  81 SE12G20   29.64S
NACOGDOCHES    CLOUDY    77  70  78 S15G25    29.61S THUNDER
LUFKIN         CLOUDY    77  70  79 SE21G26   29.61S THUNDER
$$

SUPPLEMENTAL OBSERVATIONS (CENTRAL)

CITY           SKY/WX    TMP DP  RH WIND       PRES   REMARKS
CADDO GRASSLND   N/A     70  68  94 E3          N/A
PAT MAYSE LAKE   N/A     70  68  94 E15         N/A
GREENVILLE       N/A     70  66  88 SE3G13      N/A
CEDAR HILL       N/A     72  68  88 SW3         N/A
MCGREGOR         N/A     79  73  83 S8G21       N/A
TEMPLE           N/A     79  72  78 S16G22      N/A
$$

SUPPLEMENTAL OBSERVATIONS (WEST)

CITY           SKY/WX    TMP DP  RH WIND       PRES   REMARKS
MILLERS CREEK    N/A     72  57  60 N9G20       N/A
POSSUM KINGDOM   N/A     81  52  36 W2          N/A
LBJ GRASSLAND    N/A     75  68  78 NW2         N/A
GRANBURY         N/A     73  66  78 S12         N/A
HAMBY            N/A     73  54  49 W5          N/A
IVIE RESERVOIR   N/A     82  48  30 SW2         N/A
COLORADO BEND    N/A     70  64  83 E2G10       N/A
$$

SUPPLEMENTAL OBSERVATIONS (EAST)

CITY           SKY/WX    TMP DP  RH WIND       PRES   REMARKS
CLARKSVILLE      N/A     70  68  94 SE14G24     N/A
TEXARKANA        N/A     68  64  88 E7G20       N/A
LINDEN           N/A     70  66  88 E9G17       N/A
GILMER           N/A     73  70  88 S7G22       N/A
HENDERSON        N/A     73  70  88 SE3G16      N/A
LUFKIN           N/A     79  72  78 MISG        N/A
N SABINE NF      N/A     79  70  73 MISG        N/A
S SABINE NF      N/A     77  70  78 SE5         N/A
$$

SUPPLEMENTAL OBSERVATIONS ARE A COLLECTION OF AUTOMATED INSTRUMENTS
THAT ARE MAINTAINED BY A VARIETY OF FEDERAL AND STATE AGENCIES.
CERTAIN ELEMENTS...SUCH AS HUMIDITY VALUES AND SUSTAINED WIND
SPEEDS...MAY BE APPROXIMATED.




USA.gov is the U.S. government's official web portal to all federal, state and local government web resources and services.